Retour au catalogue

STARLINK-32939

ActifCommunicationsVLEO
NORAD 63149·PAYLOAD·🇺🇸 United States

Lancé Mar 3, 2025 depuis Cape Canaveral Space Force Station

Loading…

Prochains Passages (prochaines 24 heures)

TLE

FraisSource: CelesTrak SupGP

Époque: Sep 14, 2026, 22:27 UTC

1 63149C 25043T   26257.93590278  .00025538  00000+0  92514-3 0  2575
2 63149  43.0015  27.2706 0001600 280.2870 213.8315 15.27560569    16

Suivez STARLINK-32939 en temps réel avec AllMySat

Download on the App Store